Location: Saint Louis
(38.6272°N, 90.1978°W)
Time: 07:34:07
(UTC-06:00)

Tiangong 1 - Visible Passes

Search period start: 09 December 2016 00:00
Search period end: 19 December 2016 00:00
Orbit: 348 x 370 km, 42.8° (Epoch: 09 December)

Date Brightness Start Highest point End Pass type
(mag) Time Alt. Az. Time Alt. Az. Time Alt. Az.
09 Dec 1.8 18:11:06 10° WNW 18:13:58 37° N 18:14:01 37° N visible
10 Dec 1.5 17:03:02 10° W 17:06:00 48° NNW 17:08:57 10° ENE visible
10 Dec 3.2 18:39:39 10° WNW 18:41:01 21° NW 18:41:01 21° NW visible
11 Dec 1.9 17:31:36 10° WNW 17:34:27 35° N 17:36:19 17° ENE visible
11 Dec 4.4 19:07:58 10° WNW 19:08:00 10° WNW 19:08:00 10° WNW visible
12 Dec 1.6 18:00:01 10° WNW 18:02:53 38° N 18:03:18 36° NNE visible
13 Dec 2.0 18:28:12 10° WNW 18:30:20 39° NW 18:30:20 39° NW visible
14 Dec 1.5 17:20:10 10° WNW 17:23:06 42° N 17:25:43 12° E visible
14 Dec 3.7 18:56:21 10° WNW 18:57:25 19° W 18:57:25 19° W visible
15 Dec 0.8 17:48:15 10° WNW 17:51:17 78° NNE 17:52:55 24° ESE visible
16 Dec 2.2 18:16:24 10° W 18:19:16 39° SSW 18:20:17 28° SSE visible
17 Dec 1.0 17:08:08 10° WNW 17:11:12 83° SSW 17:14:13 10° ESE visible
17 Dec 3.9 18:45:19 10° WSW 18:46:59 14° SW 18:47:53 13° SSW visible
18 Dec 2.9 17:36:18 10° W 17:39:01 29° SSW 17:41:42 10° SSE visible
